User: anonymous   Login
Location: Unspecified
(0.0000°N, 0.0000°E)
Time: 12:24:13
(UTC+00:00)
Language:

SPACECUBE (2U) - Orbit

View from above orbital plane
View from above orbital plane
View from above satellite
View from above satellite

Ground track
Ground track

The orbit data is extracted from the following two-line orbital elements,

1 42717U 98067LY  18347.68263458  .00071474  00000-0  27335-3 0  9992
2 42717  51.6212 149.5942 0003911 229.7400 130.3263 15.86794053 89274
Epoch (UTC): 13 December 2018 16:22:59
Eccentricity: 0.0003911
inclination: 51.6212°
perigee height: 308 km
apogee height: 314 km
right ascension of ascending node: 149.5942°
argument of perigee: 229.7400°
revolutions per day: 15.86794053
mean anomaly at epoch: 130.3263°
orbit number at epoch: 8927

The dashed part of the orbit path shows where the satellite is in the earth's shadow,  

DLR